TimeMST,TemperatureF,Dew PointF,Humidity,Sea Level PressureIn,VisibilityMPH,Wind Direction,Wind SpeedMPH,Gust SpeedMPH,PrecipitationIn,Events,Conditions,WindDirDegrees,DateUTC
12:55 AM,46.9,17.1,30,29.50,10.0,West,8.1,-,N/A,,Clear,280,2012-12-03 07:55:00
1:55 AM,53.1,18.0,25,29.53,10.0,WNW,13.8,-,N/A,,Clear,290,2012-12-03 08:55:00
2:55 AM,52.0,19.9,28,29.55,10.0,WNW,15.0,27.6,N/A,,Clear,290,2012-12-03 09:55:00
3:55 AM,46.9,19.9,34,29.61,10.0,WNW,19.6,-,N/A,,Clear,290,2012-12-03 10:55:00
4:55 AM,46.0,19.9,35,29.70,10.0,WNW,12.7,-,N/A,,Clear,300,2012-12-03 11:55:00
5:55 AM,46.0,24.1,42,29.76,10.0,North,31.1,41.4,N/A,,Clear,360,2012-12-03 12:55:00
6:55 AM,41.0,24.1,51,29.85,10.0,North,23.0,32.2,N/A,,Clear,350,2012-12-03 13:55:00
7:55 AM,44.1,21.0,40,29.88,10.0,North,27.6,34.5,N/A,,Clear,350,2012-12-03 14:55:00
8:55 AM,46.9,12.9,25,29.95,10.0,North,29.9,36.8,N/A,,Clear,360,2012-12-03 15:55:00
9:55 AM,46.9,16.0,29,29.99,10.0,North,27.6,36.8,N/A,,Clear,10,2012-12-03 16:55:00
10:55 AM,48.0,10.9,22,29.99,10.0,North,27.6,41.4,N/A,,Clear,10,2012-12-03 17:55:00
11:55 AM,50.0,12.9,23,29.92,10.0,North,24.2,34.5,N/A,,Clear,360,2012-12-03 18:55:00
12:55 PM,51.1,10.0,19,29.93,10.0,North,26.5,35.7,N/A,,Clear,10,2012-12-03 19:55:00
1:55 PM,51.1,14.0,23,29.93,10.0,NNE,19.6,-,N/A,,Clear,20,2012-12-03 20:55:00
2:55 PM,48.9,14.0,25,29.96,10.0,NNE,13.8,-,N/A,,Clear,30,2012-12-03 21:55:00
3:55 PM,46.0,14.0,28,30.04,10.0,ENE,6.9,-,N/A,,Clear,60,2012-12-03 22:55:00
4:55 PM,33.1,12.9,43,30.12,10.0,ENE,6.9,-,N/A,,Clear,70,2012-12-03 23:55:00
5:55 PM,33.1,14.0,46,30.13,10.0,Calm,Calm,-,N/A,,Clear,0,2012-12-04 00:55:00
6:55 PM,26.1,12.0,55,30.20,10.0,Calm,Calm,-,N/A,,Clear,0,2012-12-04 01:55:00
7:55 PM,23.0,10.9,60,30.20,10.0,Calm,Calm,-,N/A,,Clear,0,2012-12-04 02:55:00
8:55 PM,21.9,10.9,63,30.19,10.0,WSW,3.5,-,N/A,,Clear,250,2012-12-04 03:55:00
9:55 PM,19.0,10.0,68,30.23,10.0,West,3.5,-,N/A,,Clear,280,2012-12-04 04:55:00
10:55 PM,19.0,10.0,68,30.23,10.0,Calm,Calm,-,N/A,,Clear,0,2012-12-04 05:55:00
11:55 PM,17.1,10.0,74,30.24,10.0,Calm,Calm,-,N/A,,Clear,0,2012-12-04 06:55:00